Snowfall_Accumulation
0.0 0.0 0.0 0.0 0.0 0.0 0.0 0.0 0.0 0.0 0.0 0.0 0.0 0.0 0.0 0.0 0.0 0.0 0.0 0.0 0.0 0.0 0.0 0.0 0.0 0.0 0.0 0.0 0.0 0.0 0.0 0.0 0.0 0.0 0.0 0.0 0.0 0.0 0.0 0.0 0.0 0.0 0.0 0.0 0.0
0.0 0.0 0.0 0.0 0.0 0.0 0.0 0.0 0.0 0.0 0.0 0.0 0.0 0.0 0.0 0.0 0.0 0.0 0.0 0.0 0.0 0.0 0.0 0.0 0.0 0.0 0.0 0.0 0.0 0.0 0.0 0.0 0.0 0.0 0.0 0.0 0.0 0.0 0.0 0.0 0.0 0.0 0.0 0.0 0.0
0.0 0.0 0.0 0.0 0.0 0.0 0.0 0.0 0.0 0.0 0.0 0.0 0.0 0.0 0.0 0.0 0.0 0.0 0.0 0.0 0.0 0.0 0.0 0.0 0.0 0.0 0.0 0.0 0.0 0.0 0.0 0.0 0.0 0.0 0.0 0.0 0.0 0.0 0.0 0.0 0.0 0.0 0.0 0.0 0.0
0.0 0.0 0.0 0.0 0.0 0.0 0.0 0.0 0.0 0.0 0.0 0.0 0.0 0.0 0.0 0.0 0.0 0.0 0.0 0.0 0.0 0.0 0.0 0.0 0.0 0.0 0.0 0.0 0.0 0.0 0.0 0.0 0.0 0.0 0.0 0.0 0.0 0.0 0.0 0.0 0.0 0.0 0.0 0.0 0.0
0.0 0.0 0.0 0.0 0.0 0.0 0.0 0.0 0.0 0.0 0.0 0.0 0.0 0.0 0.0 0.0 0.0 0.0 0.0 0.0 0.0 0.0 0.0 0.0 0.0 0.0 0.0 0.0 0.0 0.0 0.0 0.0 0.0 0.0 0.0 0.0 0.0 0.0 0.0 0.0 0.0 0.0 0.0 0.0 0.0
0.0 0.0 0.0 0.0 0.0 0.0 0.0 0.0 0.0 0.0 0.0 0.0 0.0 0.0 0.0 0.0 0.0 0.0 0.0 0.0 0.0 0.0 0.0 0.0 0.0 0.0 0.0 0.0 0.0 0.0 0.0 0.0 0.0 0.0 0.0 0.0 0.0 0.0 0.0 0.0 0.0 0.0 0.0 0.0 0.0
0.0 0.0 0.0 0.0 0.0 0.0 0.0 0.0 0.0 0.0 0.0 0.0 0.0 0.0 0.0 0.0 0.0 0.0 0.0 0.0 0.0 0.0 0.0 0.0 0.0 0.0 0.0 0.0 0.0 0.0 0.0 0.0 0.0 0.0 0.0 0.0 0.0 0.0 0.0 0.0 0.0 0.0 0.0 0.0 0.0
0.0 0.0 0.0 0.0 0.0 0.0 0.0 0.0 0.0 0.0 0.0 0.0 0.0 0.0 0.0 0.0 0.0 0.0 0.0 0.0 0.0 0.0 0.0 0.0 0.0 0.0 0.0 0.0 0.0 0.0 0.0 0.2 0.0 0.0 0.0 0.0 0.0 0.0 0.0 0.0 0.0 0.0 0.0 0.0 0.0
0.0 0.0 0.0 0.0 0.0 0.0 0.0 0.0 0.0 0.0 0.0 0.0 0.0 0.0 0.2 0.0 0.0 0.0 0.0 0.0 0.0 0.0 0.0 0.0 0.0 0.0 0.0 1.6 0.0 0.0 0.3 0.2 0.0 0.0 0.0 0.0 0.0 0.0 0.0 0.0 0.0 0.0 0.0 0.0 0.0
0.0 0.0 0.0 0.0 0.0 0.0 0.0 0.0 0.0 0.0 0.0 0.0 0.0 0.0 0.0 0.0 0.0 0.0 0.0 0.0 0.0 0.0 0.0 0.0 0.0 0.2 0.0 2.7 9.1 3.8 2.3 0.1 0.0 0.0 0.0 0.0 0.0 0.0 0.0 0.0 0.0 0.0 0.0 0.0 0.0
0.0 0.0 0.0 0.0 0.0 0.0 0.0 0.0 0.0 0.0 0.0 0.0 0.0 0.0 0.0 0.0 0.0 0.0 0.0 0.0 0.0 0.0 0.6 0.1 3.3 5.5 0.8 0.0 0.7 0.5 0.6 0.8 0.0 0.0 0.0 0.0 0.0 0.0 0.0 0.0 0.0 0.0 0.0 0.0 0.0
0.0 0.0 0.0 0.0 0.0 0.0 0.0 0.0 0.0 0.0 0.0 0.0 0.0 0.0 0.0 0.0 0.0 0.0 0.0 0.0 0.0 0.0 0.0 0.2 8.1 0.2 0.1 0.1 0.6 2.2 3.6 1.8 0.0 0.0 0.0 0.0 0.0 0.0 0.0 0.0 0.0 0.0 0.0 0.0 0.0
0.0 0.0 0.0 0.0 0.0 0.0 0.0 0.0 0.0 0.0 0.0 0.0 0.0 0.0 0.0 0.0 0.0 0.0 0.0 0.0 0.0 0.0 0.0 0.6 0.0 0.1 1.0 1.3 3.2 3.4 3.4 2.0 0.7 0.0 0.0 0.0 0.1 0.0 0.0 0.0 0.0 0.0 0.0 0.0 0.0
0.0 0.0 0.0 0.0 0.0 0.0 0.0 0.0 0.0 0.0 1.3 0.0 0.0 0.0 0.0 0.0 0.0 0.0 0.0 0.0 0.0 0.4 0.0 0.5 0.2 0.9 5.4 4.9 2.2 3.9 0.4 0.5 1.7 2.1 5.5 0.0 3.3 0.0 0.0 0.0 0.0 0.0 0.0 0.0 0.0
0.0 0.0 0.0 0.0 0.0 0.0 0.0 0.0 0.0 0.0 0.9 0.0 0.0 0.0 0.0 0.0 0.0 0.0 0.0 0.0 1.7 0.6 3.0 1.2 2.3 1.9 1.9 2.7 3.4 6.2 0.0 0.1 1.7 4.9 4.0 1.6 3.0 0.0 0.0 0.0 0.0 0.0 0.0 0.0 0.0
0.0 0.0 0.0 0.0 0.0 0.0 0.0 0.0 0.0 0.3 0.1 0.0 0.0 0.0 0.0 0.0 0.2 0.0 0.0 0.0 0.3 1.3 1.0 3.0 2.0 2.2 1.9 0.9 1.4 0.0 3.2 1.7 2.8 8.5 20.0 1.9 2.0 1.2 0.3 0.0 0.0 0.0 0.0 0.0 0.0
0.0 0.0 0.0 0.0 0.0 0.0 0.0 0.0 0.0 1.0 0.0 0.0 0.0 0.0 0.0 0.0 0.1 0.1 1.3 0.6 2.3 4.6 4.6 2.1 3.9 1.0 0.1 0.9 1.2 0.9 5.8 14.1 18.7 20.7 14.6 0.7 2.4 1.5 0.3 0.0 0.0 0.0 0.0 0.0 0.0
0.0 0.0 0.0 0.0 0.0 0.0 0.0 0.0 0.0 0.3 0.2 0.0 0.0 0.0 0.1 0.0 0.0 0.2 1.1 2.7 2.1 2.5 5.5 6.3 6.8 5.2 2.7 4.1 4.3 2.3 4.5 11.5 9.1 7.1 5.5 1.9 8.4 3.8 0.7 0.1 0.0 0.0 0.0 0.0 0.0
0.0 0.0 0.0 0.0 0.0 0.0 0.0 0.0 1.8 2.1 0.7 0.3 0.0 0.0 0.0 0.0 0.0 0.0 0.4 1.4 2.6 1.4 7.7 8.5 5.3 2.7 2.0 3.0 3.2 5.5 6.8 5.5 6.9 2.8 0.3 8.1 7.1 2.6 1.7 0.7 0.0 0.1 0.0 0.0 0.1
0.0 0.0 0.0 0.0 0.0 0.0 0.0 1.1 2.1 0.5 0.0 0.1 1.3 0.9 0.3 0.1 0.0 0.1 0.3 0.1 0.0 0.0 0.0 3.4 4.5 2.7 2.5 0.8 2.0 3.9 3.8 5.5 4.7 8.9 6.6 5.3 3.5 3.8 3.8 2.1 1.2 1.2 0.2 0.2 0.2
0.0 0.0 0.0 0.0 0.0 0.0 0.0 0.0 0.0 0.0 0.0 0.2 1.4 0.4 0.2 0.4 0.4 0.2 1.5 0.3 0.0 0.0 0.0 0.0 0.6 1.2 0.0 4.8 6.7 3.9 5.5 5.7 4.9 5.6 5.5 4.0 5.2 3.2 2.3 2.0 1.6 1.7 1.7 0.4 0.4
0.0 0.0 0.0 0.0 0.0 0.0 0.0 0.0 0.0 0.0 0.0 0.1 0.3 0.6 1.0 0.3 0.1 0.9 1.3 0.5 0.0 0.0 0.0 0.0 0.0 1.5 3.1 3.4 2.5 2.9 5.3 4.9 4.9 3.3 2.9 3.0 2.5 2.4 2.4 2.0 2.2 2.0 2.0 2.3 1.7
0.0 0.0 0.0 0.0 0.0 0.0 0.0 0.0 0.0 0.0 0.0 0.0 0.3 0.5 0.2 0.2 1.3 1.1 0.8 0.2 0.0 0.0 0.1 0.0 0.0 0.0 2.0 1.7 0.0 1.7 3.7 5.6 4.7 1.5 3.1 2.0 2.8 3.4 2.9 1.5 3.6 3.7 3.7 3.5 3.1
0.0 0.0 0.0 0.0 0.0 0.0 0.0 0.0 0.0 0.0 0.0 0.0 0.2 0.1 0.0 0.2 0.2 1.1 0.7 0.0 0.0 0.0 0.0 0.0 0.0 0.0 0.2 1.8 1.1 1.6 2.1 3.4 2.5 1.1 2.8 0.9 2.3 3.6 3.9 4.2 5.4 6.2 4.8 4.1 3.7
0.0 0.0 0.0 0.0 0.0 0.0 0.1 0.0 0.1 0.2 0.0 0.0 0.0 0.0 2.1 1.6 0.2 0.6 0.7 0.2 0.0 0.0 0.0 0.0 0.0 0.0 0.0 0.0 0.1 0.0 1.7 2.0 3.9 3.5 1.9 2.2 1.5 1.8 2.7 3.7 4.7 5.0 4.0 2.9 3.0
0.0 0.0 0.0 0.0 0.0 0.0 0.0 0.0 0.2 0.0 0.2 0.3 0.3 0.1 0.7 2.5 4.0 4.0 2.9 1.1 0.3 0.0 0.0 0.0 0.0 0.0 0.0 0.0 0.0 0.0 0.0 0.0 1.6 2.0 3.0 1.6 2.9 2.0 2.8 3.5 4.4 4.4 2.7 2.2 2.3
0.0 0.0 0.2 0.0 0.0 0.0 0.3 0.3 0.0 0.1 0.0 0.7 0.5 0.4 0.0 0.8 1.1 0.7 0.4 0.3 0.2 1.5 0.1 0.0 0.0 0.0 0.0 0.0 0.0 0.0 1.5 1.9 3.6 3.9 2.4 2.9 4.7 2.6 3.0 3.1 3.3 3.6 2.2 1.7 1.8